Regional Weather Roundup
Issued by NWS

Home | Current Version | Previous Version | Graphics & Text | Print | Product List | Glossary On
Versions: 1 2 3 4 5 6 7 8 9 10 11 12 13 14 15 16 17 18 19 20 21 22 23 24 25 26 27 28 29 30 31 32
000
ASUS45 KCYS 221710
RWRWY

WYOMING REGIONAL WEATHER ROUNDUP
NATIONAL WEATHER SERVICE CHEYENNE WY
1100 AM MDT WED OCT 22 2014

NOTE:  "FAIR" INDICATES FEW OR NO CLOUDS BELOW 12,000 FEET
WITH NO SIGNIFICANT WEATHER AND/OR OBSTRUCTIONS TO VISIBILITY.

WYZ001-221800-
YELLOWSTONE NATIONAL PARK

CITY           SKY/WX    TMP DP  RH WIND       PRES   REMARKS
LK YELLOWSTONE   N/A     35  27  72 VRB3      30.21S
W YELLOWSTONE  NOT AVBL

$$
WYZ002>013-054>058-071-098>099-221800-
NORTHERN WYOMING

CITY           SKY/WX    TMP DP  RH WIND       PRES   REMARKS
JACKSON        SUNNY     43  30  61 S9        30.21S
CODY           SUNNY    N/A N/A N/A W15G28    30.07S
GREYBULL       SUNNY     49  26  41 E6        30.09F
WORLAND        SUNNY     50  25  37 W3        30.09F
SHERIDAN       SUNNY     56  27  32 E10       30.04F
BUFFALO        SUNNY     51  27  39 SE14      30.08S
GILLETTE       SUNNY     53  28  38 W7        30.08R
HULETT         FAIR      54  30  40 W9        30.05
NEWCASTLE      FAIR      52  28  40 NW15G22   30.07

$$
WYZ014>020-022>026-101>103-221800-
CENTRAL WYOMING

CITY           SKY/WX    TMP DP  RH WIND       PRES   REMARKS
BIG PINEY      SUNNY     38  27  64 E3        30.24S
PINEDALE       SUNNY     37  30  75 CALM      30.24S
DUBOIS         FAIR      43  18  36 NW20      30.15R
LANDER         PTSUNNY   52  22  30 VRB3      30.12S
RIVERTON       MOSUNNY   49  25  39 NW6       30.13S
CASPER         SUNNY     53  24  32 SW20G25   30.11F
DOUGLAS        SUNNY     53  25  33 W12       30.12F

$$
WYZ021-027>030-104>119-221800-
SOUTHERN WYOMING

CITY           SKY/WX    TMP DP  RH WIND       PRES   REMARKS
EVANSTON       MOSUNNY   42  25  50 VRB5      30.24S
KEMMERER       SUNNY     43  27  52 W7        30.24S
FORT BRIDGER   FAIR      43  28  56 CALM      30.27S
ROCK SPRINGS   MOSUNNY   39  29  67 SW7       30.24R WCI  34
DIXON          PTSUNNY   46  35  66 CALM      30.25R
RAWLINS        SUNNY     43  28  55 W16       30.21R
SARATOGA       PTSUNNY   45  32  61 W9G17     30.22R
LARAMIE        MOSUNNY   51  34  52 W16       30.16S
CHEYENNE       SUNNY     59  36  42 W14G21    30.13R
TORRINGTON     SUNNY     58  31  35 NW12      30.09S
PINE BLUFFS    FAIR      55  36  47 N14       30.12S

$$



USA.gov is the U.S. government's official web portal to all federal, state and local government web resources and services.